Location: Alessandria
(44.9000°N, 8.6170°E)
Time: 02:54:25
(UTC+02:00)

ISS - Pass Details

Date: 20 May 2021
Orbit: 417 x 422 km, 51.6° (Epoch: 14 June)

Event Time Altitude Azimuth Distance (km) Brightness Sun altitude
Rises 22:54:26 0° 283° (WNW) 2,364 0.9 -16.8°
Reaches altitude 10° 22:56:46 10° 297° (WNW) 1,502 0.0 -17.0°
Maximum altitude 22:59:38 25° 355° (N) 884 -1.5 -17.3°
Drops below altitude 10° 23:02:32 10° 54° (NE) 1,505 -0.9 -17.6°
Enters shadow 23:04:23 - 66° (ENE) 2,186 -0.2 -17.8°
